Hourly Data Report for October 12, 2014

All times are specified in Local Standard Time (LST). Add 1 hour to adjust for Daylight Saving Time where and when it is observed.

CHARLOTTETOWN A
PRINCE EDWARD ISLAND

46°17'21.000" N
63°07'09.000" W
48.50 m
8300301
71706
YYG

Download Data

Hourly Data (October 2014)
Hourly Data Report for October 12, 2014
Temp Definition
°C
Dew Point Temp Definition
°C
Rel Hum Definition
%
Wind Dir Definition
10's deg

Wind Spd Definition
km/h
Visibility Definition
km
Stn Press Definition
kPa
Hmdx Definition


Wind Chill Definition


Weather Definition


TIME
00:00 Legend Double Dagger 8.0 5.7 85 28 8 24.1 100.93     LegendNANA
01:00 Legend Double Dagger 6.4 4.9 90 30 7 24.1 100.86     LegendNANA
02:00 Legend Double Dagger 6.6 5.1 90 28 10 24.1 100.83     Mainly Clear
03:00 Legend Double Dagger 5.9 4.7 92 29 9 24.1 100.83     LegendNANA
04:00 Legend Double Dagger 6.3 4.8 90 29 12 24.1 100.81     LegendNANA
05:00 Legend Double Dagger 6.4 4.7 89 29 13 24.1 100.83     Mainly Clear
06:00 Legend Double Dagger 6.0 4.5 90 30 11 24.1 100.84     LegendNANA
07:00 Legend Double Dagger 6.5 4.7 88 29 13 24.1 100.92     LegendNANA
08:00 Legend Double Dagger 8.1 5.9 86 29 18 24.1 100.93     Mainly Clear
09:00 Legend Double Dagger 9.5 6.2 80 30 21 24.1 101.01     LegendNANA
10:00 Legend Double Dagger 10.0 5.2 72 31 24 24.1 101.05     LegendNANA
11:00 Legend Double Dagger 7.8 6.3 90 31 18 16.1 101.13     Rain Showers
12:00 Legend Double Dagger 8.8 6.9 88 33 19 19.3 101.16     Rain Showers
13:00 Legend Double Dagger 9.9 5.5 74 32 23 24.1 101.19     LegendNANA
14:00 Legend Double Dagger 10.6 5.2 69 33 25 24.1 101.20     Mostly Cloudy
15:00 Legend Double Dagger 10.5 5.1 69 33 22 24.1 101.27     LegendNANA
16:00 Legend Double Dagger 10.6 4.1 64 33 19 24.1 101.32     LegendNANA
17:00 Legend Double Dagger 9.5 4.5 71 32 11 24.1 101.40     Mainly Clear
18:00 Legend Double Dagger 7.6 4.4 80 30 7 24.1 101.47     LegendNANA
19:00 Legend Double Dagger 6.0 4.2 88 30 7 24.1 101.52     LegendNANA
20:00 Legend Double Dagger 5.9 3.6 85 25 6 24.1 101.57     Mainly Clear
21:00 Legend Double Dagger 5.0 3.3 89 23 11 24.1 101.61     LegendNANA
22:00 Legend Double Dagger 5.7 3.1 83 24 10 24.1 101.63     LegendNANA
23:00 Legend Double Dagger 5.5 2.7 82 26 11 24.1 101.65     Mainly Clear

Notes on Data Quality.

Legend

  • E = Estimated
  • M = Missing
  • NA = Not Available
  • ‡ = Partner data that is not subject to review by the National Climate Archives
Date modified: